Location: Augirein
(42.9320°N, 0.9181°E)
Time: 02:35:29
(UTC+00:00)

SL-4 R/B - Pass Details

Date: 20 June 2021
Orbit: 428 x 662 km, 51.6° (Epoch: 25 July)

Event Time Altitude Azimuth Distance (km) Brightness Sun altitude
Rises 02:59:26 0° 304° (NW) 2,525 5.3 -11.6°
Reaches altitude 10° 03:01:49 10° 315° (NW) 1,611 4.4 -11.3°
Maximum altitude 03:05:05 32° 20° (NNE) 793 3.6 -10.9°
Drops below altitude 10° 03:08:13 10° 85° (E) 1,539 5.1 -10.5°
Sets 03:10:26 0° 96° (E) 2,392 5.9 -10.2°
